Date String (YYYY-MM-DD hh:mm:ss) UTC,Instrument flags,Ambient pressure (hPa),Sample flow (lpm),Bypass flow (lpm),Sample temperature (°C),Ambient temperature (°C),ASC tube jacket temperature (°C),LED temperature (°C),Box temperature (°C),Sample RH (%),Span deviation,Mass concentration (μg/m³),Mass concentration (μg/m³),Mass concentration (μg/m³)
DateTimeUTC,F1_M11,P_M11,Q1_M11,Q2_M11,T1_M11,T2_M11,T3_M11,T4_M11,T5_M11,U1_M11,ZSPAN_M11,X0_M11,X2_M11,X1_M11
2022-06-28 17:00:00,,0832.6,5.01,0.00,29.2,28.2,00.0,37.9,31.2,18.2,0000.0,0010.21,0003.98,0003.41
2022-06-28 17:01:00,,0832.6,4.99,0.00,29.3,28.3,00.0,37.9,31.2,17.8,0000.0,0010.00,0003.98,0003.41
2022-06-28 17:02:00,,0832.6,5.00,0.00,29.3,27.9,00.0,37.9,31.2,17.6,0000.0,0009.87,0003.93,0003.40
2022-06-28 17:03:00,,0832.6,5.00,0.00,29.2,27.3,00.0,37.9,31.0,17.7,0000.0,0010.20,0003.91,0003.39
2022-06-28 17:04:00,,0832.6,5.01,0.00,29.1,27.1,00.0,37.8,30.9,17.3,0000.0,0010.26,0003.91,0003.38
2022-06-28 17:05:00,,0832.6,5.00,0.00,29.1,27.2,00.0,37.8,30.9,17.9,0000.0,0010.34,0003.84,0003.36
2022-06-28 17:06:00,,0832.6,5.00,0.00,29.1,27.3,00.0,37.8,30.9,17.6,0000.0,0010.11,0003.79,0003.36
2022-06-28 17:07:00,,0832.6,5.01,0.00,29.1,27.4,00.0,37.8,30.9,17.5,0000.0,0009.83,0003.80,0003.35
2022-06-28 17:08:00,,0832.6,5.00,0.00,29.1,27.6,00.0,37.8,31.0,17.4,0000.0,0009.94,0003.83,0003.36
2022-06-28 17:09:00,,0832.6,5.00,0.00,29.1,27.8,00.0,37.9,31.0,16.6,0000.0,0009.68,0003.85,0003.36
2022-06-28 17:10:00,,0832.6,5.01,0.00,29.1,27.9,00.0,37.9,31.1,16.8,0000.0,0008.24,0003.81,0003.35
2022-06-28 17:11:00,,0832.6,5.00,0.00,29.2,28.1,00.0,37.9,31.1,17.1,0000.0,0008.27,0003.83,0003.35
2022-06-28 17:12:00,,0832.6,4.99,0.00,29.2,28.2,00.0,37.9,31.2,17.6,0000.0,0008.29,0003.84,0003.35
2022-06-28 17:13:00,,0832.6,4.99,0.00,29.2,28.2,00.0,37.9,31.2,18.2,0000.0,0009.24,0003.88,0003.36
2022-06-28 17:14:00,,0832.6,4.99,0.00,29.2,27.6,00.0,37.9,31.1,18.6,0000.0,0009.52,0003.90,0003.38
2022-06-28 17:15:00,,0832.6,5.00,0.00,29.1,27.1,00.0,37.8,30.9,18.9,0000.0,0009.62,0003.91,0003.38
2022-06-28 17:16:00,,0832.6,5.00,0.00,29.1,27.1,00.0,37.8,30.9,18.8,0000.0,0009.36,0003.94,0003.40
2022-06-28 17:17:00,,0832.6,5.01,0.00,29.1,27.1,00.0,37.8,30.9,19.2,0000.0,0009.48,0004.00,0003.41
2022-06-28 17:18:00,,0832.6,5.00,0.00,29.1,27.3,00.0,37.8,30.9,19.6,0000.0,0009.69,0004.01,0003.42
2022-06-28 17:19:00,,0832.6,5.00,0.00,29.1,27.5,00.0,37.8,30.9,20.0,0000.0,0009.77,0003.99,0003.42
2022-06-28 17:20:00,,0832.6,5.00,0.00,29.1,27.6,00.0,37.8,31.0,19.6,0000.0,0010.06,0004.03,0003.44
2022-06-28 17:21:00,,0832.6,5.00,0.00,29.1,27.8,00.0,37.8,31.0,20.2,0000.0,0010.32,0004.08,0003.46
2022-06-28 17:22:00,,0832.6,5.00,0.00,29.1,27.9,00.0,37.8,31.1,20.2,0000.0,0010.71,0004.08,0003.48
2022-06-28 17:23:00,,0832.7,5.00,0.00,29.1,28.1,00.0,37.9,31.1,20.7,0000.0,0011.48,0004.11,0003.49
2022-06-28 17:24:00,,0832.7,5.01,0.00,29.2,28.2,00.0,37.9,31.2,20.9,0000.0,0011.18,0004.13,0003.50
2022-06-28 17:25:00,,0832.7,5.00,0.00,29.2,28.1,00.0,37.9,31.2,20.9,0000.0,0010.87,0004.14,0003.51
2022-06-28 17:26:00,,0832.6,5.00,0.00,29.2,27.5,00.0,37.8,31.0,21.1,0000.0,0010.91,0004.16,0003.53
2022-06-28 17:27:00,,0832.6,4.99,0.00,29.1,27.1,00.0,37.8,30.9,20.9,0000.0,0011.51,0004.19,0003.56
2022-06-28 17:28:00,,0832.6,5.00,0.00,29.1,27.1,00.0,37.8,30.9,20.3,0000.0,0011.94,0004.19,0003.58
2022-06-28 17:29:00,,0832.7,5.00,0.00,29.0,27.2,00.0,37.8,30.9,20.4,0000.0,0011.88,0004.22,0003.60
2022-06-28 17:30:00,,0832.6,5.01,0.00,29.0,27.3,00.0,37.8,30.9,20.4,0000.0,0011.81,0004.25,0003.62
2022-06-28 17:31:00,,0832.7,5.01,0.00,29.0,27.5,00.0,37.8,30.9,20.1,0000.0,0011.75,0004.23,0003.65
2022-06-28 17:32:00,,0832.6,4.99,0.00,29.1,27.7,00.0,37.8,31.0,20.0,0000.0,0011.80,0004.21,0003.66
2022-06-28 17:33:00,,0832.6,4.99,0.00,29.1,27.8,00.0,37.8,31.0,20.0,0000.0,0011.36,0004.24,0003.67
2022-06-28 17:34:00,,0832.6,5.00,0.00,29.1,28.0,00.0,37.8,31.1,20.0,0000.0,0011.01,0004.27,0003.68
2022-06-28 17:35:00,,0832.6,5.01,0.00,29.2,28.1,00.0,37.9,31.1,19.6,0000.0,0010.90,0004.29,0003.68
2022-06-28 17:36:00,,0832.7,5.00,0.00,29.2,27.9,00.0,37.8,31.1,19.6,0000.0,0011.26,0004.27,0003.69
2022-06-28 17:37:00,,0832.7,5.00,0.00,29.1,27.2,00.0,37.8,30.9,21.0,0000.0,0011.13,0004.26,0003.69
2022-06-28 17:38:00,,0832.6,5.01,0.00,29.1,27.0,00.0,37.8,30.8,21.5,0000.0,0010.89,0004.28,0003.72
2022-06-28 17:39:00,,0832.6,5.01,0.00,29.0,27.1,00.0,37.8,30.8,21.8,0000.0,0010.65,0004.34,0003.75
2022-06-28 17:40:00,,0832.6,4.99,0.00,29.0,27.2,00.0,37.8,30.8,21.4,0000.0,0010.59,0004.38,0003.77
2022-06-28 17:41:00,,0832.6,4.99,0.00,29.0,27.4,00.0,37.8,30.9,21.4,0000.0,0010.53,0004.41,0003.80
2022-06-28 17:42:00,,0832.6,5.01,0.00,29.0,27.5,00.0,37.8,30.9,21.2,0000.0,0010.42,0004.43,0003.82
2022-06-28 17:43:00,,0832.6,5.00,0.00,29.0,27.7,00.0,37.8,31.0,21.3,0000.0,0009.88,0004.49,0003.85
2022-06-28 17:44:00,,0832.6,5.00,0.00,29.1,27.9,00.0,37.8,31.0,21.5,0000.0,0010.02,0004.53,0003.89
2022-06-28 17:45:00,,0832.6,4.99,0.00,29.1,28.0,00.0,37.8,31.1,21.2,0000.0,0009.86,0004.54,0003.93
2022-06-28 17:46:00,,0832.6,5.00,0.00,29.1,28.2,00.0,37.8,31.1,20.8,0000.0,0009.55,0004.54,0003.97
2022-06-28 17:47:00,,0832.6,5.01,0.00,29.1,28.0,00.0,37.8,31.1,21.1,0000.0,0009.21,0004.58,0004.01
2022-06-28 17:48:00,,0832.6,4.99,0.00,29.1,27.2,00.0,37.8,30.9,21.2,0000.0,0009.15,0004.64,0004.04
2022-06-28 17:49:00,,0832.5,4.99,0.00,29.0,26.9,00.0,37.7,30.8,21.2,0000.0,0009.09,0004.62,0004.06
2022-06-28 17:50:00,,0832.5,5.01,0.00,29.0,27.0,00.0,37.7,30.8,21.6,0000.0,0009.21,0004.60,0004.06
2022-06-28 17:51:00,,0832.5,5.00,0.00,29.0,27.1,00.0,37.7,30.8,21.4,0000.0,0009.50,0004.53,0004.06
2022-06-28 17:52:00,,0832.5,5.00,0.00,29.0,27.3,00.0,37.7,30.8,21.0,0000.0,0010.58,0004.50,0004.05
2022-06-28 17:53:00,,0832.5,5.00,0.00,29.0,27.4,00.0,37.7,30.9,20.9,0000.0,0012.11,0004.50,0004.05
2022-06-28 17:54:00,,0832.5,4.99,0.00,29.0,27.6,00.0,37.7,30.9,20.5,0000.0,0012.32,0004.51,0004.05
2022-06-28 17:55:00,,0832.5,4.99,0.00,29.0,27.8,00.0,37.8,31.0,20.6,0000.0,0012.26,0004.50,0004.05
2022-06-28 17:56:00,,0832.5,5.00,0.00,29.1,28.0,00.0,37.8,31.0,20.9,0000.0,0012.23,0004.53,0004.04
2022-06-28 17:57:00,,0832.4,5.01,0.00,29.1,28.1,00.0,37.8,31.1,20.5,0000.0,0012.53,0004.54,0004.03
2022-06-28 17:58:00,,0832.5,5.01,0.00,29.1,28.0,00.0,37.8,31.1,20.5,0000.0,0012.44,0004.56,0004.03
2022-06-28 17:59:00,,0832.5,5.00,0.00,29.1,27.4,00.0,37.7,30.9,21.0,0000.0,0012.38,0004.55,0004.03
